Change the Weather History Date:

Thursday, August 29, 2013

  Actual Average (KABQ) Record (KABQ)
Temperature  
Mean Temperature 69 °F 75 °F  
Max Temperature 84 °F 86 °F 97 °F (1979)
Min Temperature 54 °F 63 °F 48 °F (1915)
Degree Days  
Heating Degree Days 0 0  
Month to date heating degree days 0  
Since 1 June heating degree days 4  
Since 1 July heating degree days 0  
Cooling Degree Days 4 10  
Month to date cooling degree days 327  
Year to date cooling degree days 1138  
Since 1 June cooling degree days 1040  
Growing Degree Days 19 (Base 50)    
Moisture  
Dew Point 50 °F    
Average Humidity 55    
Maximum Humidity 80    
Minimum Humidity 28    
Precipitation  
Precipitation 0.00 in 0.04 in 0.88 in (1993)
Month to date precipitation 1.50  
Year to date precipitation 6.20  
Snow  
Snow 0.00 in - - ()
Month to date snowfall  
Since 1 June snowfall  
Since 1 July snowfall  
Snow Depth -    
Sea Level Pressure  
Sea Level Pressure 30.33 in    
Wind  
Wind Speed 4 mph (SSW)    
Max Wind Speed 18 mph    
Max Gust Speed 23 mph    
Visibility 10 miles    
Events Thunderstorm    
T = Trace of Precipitation, MM = Missing Value Source: NWS Daily Summary

Daily Weather History Graph

Daily Weather History Graph

Search for Another Location

Airport or City:

Trip Planner

Search our weather history database for the weather conditions in past years. The results will help you decide how hot, cold, wet, or windy it might be!

Date:

Astronomy

Aug. 29, 2013 Rise Set
Actual Time 6:34 AM MDT 7:34 PM MDT
Civil Twilight 6:08 AM MDT 8:00 PM MDT
Nautical Twilight 5:37 AM MDT 8:30 PM MDT
Astronomical Twilight 5:06 AM MDT 9:02 PM MDT
Moon 12:35 AM MDT (8/29) 2:58 PM MDT (8/29)
Length of Visible Light 13h 51m
Length of Day
12h 59m
Last Quarter, 37% of the Moon is Illuminated
Aug 29
Last Quarter
Sep 5
New
Sep 12
First Quarter
Sep 19
Full
Sep 26
Last Quarter

Hourly Weather History & Observations

Time (MDT) Temp. Dew Point Humidity Pressure Visibility Wind Dir Wind Speed Gust Speed Precip Events Conditions
12:15 AM 63.3 °F 49.1 °F 60% 30.34 in 10.0 mi South 4.6 mph - N/A   Clear
12:35 AM 60.6 °F 48.2 °F 64% 30.34 in 10.0 mi Calm Calm - N/A   Clear
12:55 AM 59.0 °F 47.1 °F 65% 30.34 in 10.0 mi Calm Calm - N/A   Clear
1:15 AM 59.4 °F 47.5 °F 65% 30.34 in 10.0 mi Calm Calm - N/A   Clear
1:35 AM 60.4 °F 50.4 °F 69% 30.34 in 10.0 mi SSE 4.6 mph - N/A   Clear
1:55 AM 61.7 °F 51.8 °F 70% 30.34 in 10.0 mi SSE 4.6 mph - N/A   Clear
2:15 AM 61.0 °F 51.8 °F 72% 30.34 in 10.0 mi SSE 4.6 mph - N/A   Clear
2:35 AM 60.8 °F 52.2 °F 73% 30.33 in 10.0 mi SSE 4.6 mph - N/A   Clear
2:55 AM 57.7 °F 50.4 °F 76% 30.34 in 10.0 mi Calm Calm - N/A   Clear
3:15 AM 57.2 °F 49.8 °F 76% 30.33 in 10.0 mi Calm Calm - N/A   Clear
3:35 AM 57.2 °F 48.7 °F 73% 30.33 in 10.0 mi Calm Calm - N/A   Clear
3:55 AM 55.8 °F 48.4 °F 76% 30.33 in 10.0 mi Calm Calm - N/A   Clear
4:15 AM 55.2 °F 48.4 °F 78% 30.32 in 10.0 mi Calm Calm - N/A   Clear
4:35 AM 54.9 °F 48.2 °F 78% 30.32 in 10.0 mi Calm Calm - N/A   Clear
4:55 AM 54.7 °F 48.4 °F 79% 30.33 in 10.0 mi Calm Calm - N/A   Clear
5:15 AM 54.7 °F 48.6 °F 80% 30.33 in 10.0 mi Calm Calm - N/A   Clear
5:35 AM 54.5 °F 48.2 °F 79% 30.32 in 10.0 mi Calm Calm - N/A   Clear
5:55 AM 54.9 °F 48.4 °F 79% 30.33 in 10.0 mi Calm Calm - N/A   Clear
6:15 AM 55.4 °F 48.6 °F 78% 30.33 in 10.0 mi Calm Calm - N/A   Clear
6:35 AM 56.3 °F 49.1 °F 77% 30.34 in 10.0 mi Calm Calm - N/A   Clear
6:55 AM 57.2 °F 49.6 °F 76% 30.34 in 10.0 mi Calm Calm - N/A   Clear
7:15 AM 57.7 °F 50.4 °F 76% 30.35 in 10.0 mi Calm Calm - N/A   Clear
7:35 AM 59.0 °F 50.5 °F 73% 30.35 in 10.0 mi Calm Calm - N/A   Clear
7:55 AM 61.7 °F 51.8 °F 70% 30.36 in 10.0 mi Calm Calm - N/A   Clear
8:15 AM 63.7 °F 52.7 °F 67% 30.37 in 10.0 mi Calm Calm - N/A   Clear
8:35 AM 66.4 °F 53.1 °F 62% 30.37 in 10.0 mi Calm Calm - N/A   Clear
8:55 AM 66.2 °F 53.1 °F 63% 30.37 in 10.0 mi South 8.1 mph - N/A   Clear
9:15 AM 65.5 °F 53.6 °F 65% 30.38 in 10.0 mi South 8.1 mph - N/A   Clear
9:35 AM 70.2 °F 52.7 °F 54% 30.38 in 10.0 mi South 8.1 mph - N/A   Clear
9:55 AM 72.5 °F 51.3 °F 47% 30.38 in 10.0 mi SE 5.8 mph - N/A   Clear
10:15 AM 75.0 °F 51.3 °F 43% 30.37 in 10.0 mi South 6.9 mph - N/A   Clear
10:35 AM 75.7 °F 52.2 °F 44% 30.37 in 10.0 mi SSE 5.8 mph - N/A   Clear
10:55 AM 75.9 °F 51.6 °F 43% 30.37 in 10.0 mi SSW 6.9 mph - N/A   Clear
11:15 AM 78.6 °F 51.3 °F 38% 30.37 in 10.0 mi South 9.2 mph - N/A   Clear
11:35 AM 77.7 °F 51.8 °F 40% 30.36 in 10.0 mi SSE 12.7 mph - N/A   Clear
11:55 AM 79.7 °F 53.1 °F 40% 30.35 in 10.0 mi South 4.6 mph 10.4 mph N/A   Clear
12:15 PM 82.2 °F 51.8 °F 35% 30.35 in 10.0 mi SW 8.1 mph - N/A   Clear
12:35 PM 82.4 °F 51.6 °F 34% 30.34 in 10.0 mi WNW 8.1 mph 17.3 mph N/A   Mostly Cloudy
12:55 PM 80.6 °F 50.7 °F 35% 30.34 in 10.0 mi SW 5.8 mph - N/A   Overcast
1:15 PM 81.0 °F 50.9 °F 35% 30.33 in 10.0 mi SW 9.2 mph - N/A   Overcast
1:35 PM 82.4 °F 50.5 °F 33% 30.33 in 10.0 mi WNW 6.9 mph 10.4 mph N/A   Mostly Cloudy
1:55 PM 84.0 °F 50.2 °F 31% 30.33 in 10.0 mi SW 5.8 mph - N/A   Mostly Cloudy
2:15 PM 80.6 °F 50.9 °F 35% 30.32 in 10.0 mi West 9.2 mph 16.1 mph N/A   Overcast
2:35 PM 82.0 °F 51.1 °F 34% 30.31 in 10.0 mi South 5.8 mph - N/A   Mostly Cloudy
2:55 PM 79.5 °F 52.0 °F 38% 30.31 in 10.0 mi WSW 18.4 mph 23.0 mph N/A Thunderstorm Thunderstorm
3:15 PM 79.0 °F 51.4 °F 38% 30.31 in 10.0 mi WSW 13.8 mph - N/A   Overcast
3:35 PM 79.2 °F 50.9 °F 37% 30.31 in 10.0 mi WSW 15.0 mph 19.6 mph N/A   Mostly Cloudy
3:55 PM 81.9 °F 50.7 °F 34% 30.31 in 10.0 mi SW 10.4 mph - N/A   Scattered Clouds
4:15 PM 81.1 °F 50.9 °F 35% 30.29 in 10.0 mi SSW 11.5 mph - N/A   Clear
4:35 PM 83.1 °F 48.4 °F 30% 30.29 in 10.0 mi SSW 12.7 mph 17.3 mph N/A   Clear
4:55 PM 83.1 °F 47.1 °F 28% 30.29 in 10.0 mi SSW 10.4 mph - N/A   Clear
5:15 PM 82.9 °F 47.3 °F 29% 30.29 in 10.0 mi SSW 17.3 mph 21.9 mph N/A   Clear
5:35 PM 81.9 °F 46.9 °F 29% 30.29 in 10.0 mi South 13.8 mph 20.7 mph N/A   Clear
5:55 PM 80.8 °F 47.3 °F 31% 30.29 in 10.0 mi South 12.7 mph - N/A   Clear
6:15 PM 79.9 °F 47.5 °F 32% 30.29 in 10.0 mi South 15.0 mph - N/A   Clear
6:35 PM 77.9 °F 47.5 °F 34% 30.29 in 10.0 mi South 15.0 mph 23.0 mph N/A   Clear
6:55 PM 75.4 °F 48.9 °F 39% 30.30 in 10.0 mi South 16.1 mph - N/A   Clear
7:15 PM 73.0 °F 48.7 °F 42% 30.31 in 10.0 mi SSW 16.1 mph - N/A   Clear
7:35 PM 71.1 °F 49.1 °F 46% 30.31 in 10.0 mi South 10.4 mph - N/A   Clear
7:55 PM 69.1 °F 49.1 °F 49% 30.32 in 10.0 mi SSW 10.4 mph - N/A   Clear
8:15 PM 68.0 °F 48.7 °F 50% 30.33 in 10.0 mi SSW 10.4 mph - N/A   Clear
8:35 PM 67.1 °F 49.3 °F 53% 30.34 in 10.0 mi South 8.1 mph - N/A   Clear
8:55 PM 65.7 °F 49.5 °F 56% 30.34 in 10.0 mi South 5.8 mph - N/A   Clear
9:15 PM 63.3 °F 49.5 °F 61% 30.35 in 10.0 mi South 4.6 mph - N/A   Clear
9:35 PM 63.5 °F 50.0 °F 61% 30.35 in 10.0 mi SSE 5.8 mph - N/A   Clear
9:55 PM 63.5 °F 49.5 °F 60% 30.35 in 10.0 mi SE 3.5 mph - N/A   Clear
10:15 PM 60.1 °F 48.2 °F 65% 30.35 in 10.0 mi SE 4.6 mph - N/A   Clear
10:35 PM 60.8 °F 49.3 °F 66% 30.35 in 10.0 mi SSE 3.5 mph - N/A   Clear
10:55 PM 60.3 °F 49.1 °F 67% 30.35 in 10.0 mi Calm Calm - N/A   Clear
11:15 PM 60.8 °F 49.3 °F 66% 30.35 in 10.0 mi SSE 4.6 mph - N/A   Clear
11:35 PM 56.5 °F 46.6 °F 69% 30.35 in 10.0 mi Calm Calm - N/A   Clear
11:55 PM 56.3 °F 46.9 °F 71% 30.35 in 10.0 mi Calm Calm - N/A   Clear